Location: Appleton
(44.2618°N, 88.4157°W)
Time: 11:53:44
(UTC+00:00)

S-56A Canister/Altair - Pass Details

Date: 27 February 2021
Orbit: 632 x 2500 km, 38.9° (Epoch: 18 April)

Event Time Altitude Azimuth Distance (km) Brightness Sun altitude
Rises 04:43:07 0° 279° (W) 5,514 12.3 -49.7°
Reaches altitude 10° 04:50:26 10° 252° (WSW) 4,002 11.2 -50.4°
Enters shadow 04:50:40 10° 251° (WSW) 3,968 11.2 -50.4°
Maximum altitude 04:53:19 11° 236° (SW) 3,654 - -50.7°
Drops below altitude 10° 04:55:57 10° 219° (SW) 3,551 - -50.9°
Sets 05:01:17 0° 188° (S) 4,053 - -51.3°
